This demonstration page uses our WeatherBlox Daily Observations layout. Learn more.

Left ArrowRight Arrow

Hourly Observations for July 1, 2015

Temp ( °F °C ) Dew Point ( °F °C ) Humidity (%) Winds ( mph kmh ) Pressure ( in mb ) Visibility ( mi km ) Precip ( " mm )
12:52 am 00:52 Clear 75 23.9 69 20.6 82 82 S 7 11 29.91 1013 10 16 0.00 0.00
1:52 am 01:52 Clear 76 24.4 70 21.1 82 82 S 9 15 29.86 1011 10 16 0.00 0.00
2:52 am 02:52 Partly Cloudy 75 23.9 71 21.7 88 88 S 9 15 29.85 1011 10 16 0.00 0.00
3:52 am 03:52 Partly Cloudy 75 23.9 71 21.7 88 88 SSW 12 19 29.83 1010 10 16 0.00 0.00
4:52 am 04:52 Mostly Cloudy with Light Rain 76 24.4 71 21.7 85 85 N 26 43 29.90 1012 10 16 0.00 0.03
5:00 am 05:00 Mostly Cloudy with Nearby Thunderstorms 72 22 66 19 83 83 N 14 22 29.94 1014 10 16 0.00 0.00
5:09 am 05:09 Cloudy with Nearby Thunderstorms 70 21.1 66 18.9 87 87 SE 12 19 29.94 1014 7 11 0.03 0.76
5:31 am 05:31 Cloudy with Nearby Thunderstorms 68 20 65 18.3 90 90 ENE 23 37 29.94 1014 5 8 0.23 5.84
5:48 am 05:48 Cloudy with Nearby Thunderstorms 68 20 64 18 88 88 SW 8 13 29.94 1014 10 16 0.00 0.00
5:52 am 05:52 Cloudy with Nearby Thunderstorms 68 20 65 18.3 90 90 undefined N/A 29.92 1013 10 16 0.25 6.35
6:06 am 06:06 Cloudy 68 20 64 18 88 88 E 16 26 29.94 1014 10 16 0.00 0.00
6:52 am 06:52 Cloudy 68 20 64 17.8 87 87 ESE 13 20 29.90 1013 10 16 0.00 0.03
7:14 am 07:14 Cloudy 68 20 64 18 88 88 SE 14 22 29.91 1013 10 16 0.00 0.00
7:52 am 07:52 Cloudy with Light Rain 68 20 65 18.3 90 90 SSE 10 17 29.93 1014 10 16 0.00 0.03
8:40 am 08:40 Mostly Cloudy with Light Rain 70 21 66 19 88 88 ESE 7 11 29.94 1014 10 16 0.00 0.00
8:48 am 08:48 Mostly Cloudy with Light Rain 70 21 66 19 88 88 E 7 11 29.97 1015 10 16 0.00 0.00
8:52 am 08:52 Mostly Cloudy 69 20.6 66 18.9 90 90 ENE 8 13 29.96 1015 10 16 0.02 0.51
8:59 am 08:59 Mostly Cloudy 69 20.6 66 18.9 90 90 NE 9 15 29.97 1015 10 16 0.00 0.00
9:20 am 09:20 Cloudy with Light Rain 70 21 66 19 88 88 E 12 19 29.97 1015 10 16 0.00 0.00
9:52 am 09:52 Cloudy 69 20.6 66 18.9 90 90 ESE 9 15 29.97 1015 10 16 0.00 0.03
10:49 am 10:49 Partly Cloudy 70 21 66 19 88 88 ESE 10 17 29.94 1014 10 16 0.00 0.00
10:52 am 10:52 Mostly Cloudy 71 21.7 66 18.9 84 84 ESE 10 17 29.94 1014 10 16 0.00 0.00
11:52 am 11:52 Mostly Sunny 71 21.7 67 19.4 87 87 SSE 18 30 29.93 1014 10 16 0.00 0.03
12:52 pm 12:52 Sunny 72 22.2 68 20 87 87 SSE 10 17 29.93 1013 10 16 0.00 0.03
1:52 pm 13:52 Partly Cloudy with Light Rain 74 23.3 68 20 82 82 SSE 12 19 29.91 1013 10 16 0.00 0.03
2:52 pm 14:52 Sunny 77 25 71 21.7 82 82 SSE 15 24 29.87 1012 10 16 0.01 0.25
3:52 pm 15:52 Sunny 81 27.2 72 22.2 74 74 S 17 28 29.84 1011 10 16 0.00 0.00
4:52 pm 16:52 Sunny 84 28.9 74 23.3 72 72 S 20 31 29.82 1010 10 16 0.00 0.00
5:52 pm 17:52 Sunny 84 28.9 74 23.3 72 72 S 17 28 29.82 1010 10 16 0.00 0.00
6:52 pm 18:52 Sunny 84 29 66 19 55 55 NNE 3 6 29.85 1011 9 14 0.00 0.00
7:52 pm 19:52 Sunny 82 27.8 74 23.3 77 77 S 10 17 29.81 1009 10 16 0.00 0.00
8:52 pm 20:52 Clear 79 26.1 74 23.3 85 85 SSW 10 17 29.79 1009 10 16 0.00 0.00
9:52 pm 21:52 Clear 79 26.1 73 22.8 82 82 S 9 15 29.81 1010 10 16 0.00 0.00
10:52 pm 22:52 Clear 79 26.1 71 21.7 77 77 SSW 17 28 29.80 1009 10 16 0.00 0.00
11:52 pm 23:52 Clear 80 26.7 70 21.1 71 71 SSW 16 26 29.78 1008 10 16 0.00 0.00
11:59 pm 23:59 Clear with Nearby Thunderstorms 80 26.7 70 21.1 71 71 SSW 17 28 29.74 1007 10 16 0.00 0.00

Powered by AerisWeather